Regional Weather Roundup
Issued by NWS

Home | Current Version | Previous Version | Graphics & Text | Print | Product List | Glossary On
Versions: 1 2 3 4 5 6 7 8 9 10 11 12 13 14 15 16 17 18 19 20 21 22 23 24 25 26 27 28 29 30 31 32 33 34 35 36 37 38 39 40 41 42 43 44 45 46 47 48 49 50
000
ASUS45 KBOU 150507
RWRCO

WEATHER ROUNDUP FOR COLORADO
NATIONAL WEATHER SERVICE DENVER/BOULDER CO
1100 PM MDT SUN SEP 14 2014

NOTE: "FAIR" INDICATES FEW OR NO CLOUDS BELOW 12000 FEET WITH NO
SIGNIFICANT WEATHER AND/OR OBSTRUCTIONS TO VISIBILITY.

COZ001>005-013-030-031-150600-
...NORTHWEST COLORADO...

CITY           SKY/WX    TMP DP  RH WIND       PRES   REMARKS
CRAIG          MOCLDY    58  41  53 SE3       30.19S
HAYDEN         MOCLDY    59  34  38 CALM      30.22R
MEEKER         PTCLDY    57  41  55 E5        30.23R
MOUNT WERNER   NOT AVBL
STEAMBOAT SPGS MOCLDY    60  37  42 E6        30.24R
WALDEN         CLEAR     46  32  57 CALM      30.31R
$$

COZ006>008-011-150600-
...WEST CENTRAL VALLEYS...

CITY           SKY/WX    TMP DP  RH WIND       PRES   REMARKS
GRAND JUNCTION PTCLDY    66  37  34 SE5       30.07R
MONTROSE       CLEAR     63  43  48 SE12      30.19R
EAGLE          CLEAR     55  39  54 CALM      30.26R
RIFLE          PTCLDY    60  39  45 E8        30.16R
DELTA          CLEAR     65  40  39 E7        30.14R
NUCLA          CLEAR     63  41  45 E13       30.21S
$$

COZ017>023-064>068-150600-
...SOUTHWEST COLORADO...

CITY           SKY/WX    TMP DP  RH WIND       PRES   REMARKS
DURANGO        PTCLDY    60  39  45 CALM      30.23R
CORTEZ         CLEAR     59  45  59 NE7       30.18S
PAGOSA SPRINGS NOT AVBL
TELLURIDE      PTCLDY    54  39  58 SE5       30.42S
WOLF CREEK PAS PTCLDY    45  32  61 SW6       30.61S
$$

COZ009-010-012-014-032>034-037-058>063-150600-
...CENTRAL COLORADO...

CITY           SKY/WX    TMP DP  RH WIND       PRES   REMARKS
ASPEN          CLEAR     50  37  61 SW9       30.32R
BUENA VISTA    CLEAR     54  33  45 NW6       30.33R
COPPER MTN     CLEAR     46  27  46 W15G25    30.59S
BERTHOUD PASS  FAIR      39  37  93 W16       30.62S
COTTONWOOD PAS CLEAR     59  27  29 W10       30.46R
GUNNISON       PTCLDY    50  36  57 CALM      30.35R
KREMMLING      CLEAR     48  36  61 SE3       30.30S
LEADVILLE      CLEAR     39  30  70 NE3       30.45S
SALIDA         CLEAR     59  32  36 W9        30.37S
SUNLIGHT       CLEAR     52  30  43 CALM      30.54R
WILKERSON PASS NOT AVBL
$$

COZ069>075-150600-
...SAN LUIS VALLEY/SANGRE DE CRISTO MOUNTAINS...

CITY           SKY/WX    TMP DP  RH WIND       PRES   REMARKS
ALAMOSA        CLOUDY    59  41  51 S5        30.29R
LA VETA PASS   NOT AVBL
SAGUACHE       NOT AVBL
$$

COZ035-036-038>040-150600-
...NORTHERN COLORADO FRONT RANGE...

CITY           SKY/WX    TMP DP  RH WIND       PRES   REMARKS
DENVER INTL AP CLOUDY    63  43  48 S12       30.12S
DMNS CITY PARK   N/A     56  53  92 SW2       30.12S
AURORA         NOT AVBL
FRONT RANGE AP CLOUDY    68  43  40 S10       30.13S
ERIE MUNI ARPT MOCLDY    61  46  56 CALM      30.11R
BOULDER MUN AP MOCLDY    64  36  34 S6        30.11R
CENTENNIAL     MOCLDY    64  43  46 S6        30.16S
BROOMFIELD     NOT AVBL
FORT COLLINS   MOCLDY    59  48  67 N10       30.16R
LONGMONT       MOCLDY    65  49  56 NE15G23   30.15R
$$

COZ041-046-047-076>085-087-088-150600-
...PIKES PEAK/PALMER DIVIDE AND SOUTHERN FOOTHILLS...

CITY           SKY/WX    TMP DP  RH WIND       PRES   REMARKS
COLO. SPRINGS  MOCLDY    65  35  33 N6        30.19R
A. F. ACADEMY  NOT AVBL
ELLICOTT       NOT AVBL
FALCON         MOCLDY    61  33  34 N8        30.24S
FORT CARSON    NOT AVBL
LIMON          PTCLDY    60  45  57 N7        30.13S
MONUMENT HILL  MOCLDY    59  36  41 SE7       30.24R
TRINIDAD       CLEAR     67  51  56 W22G29    30.13S
$$

COZ042>045-048>051-090-091-150600-
...NORTHEAST COLORADO...

CITY           SKY/WX    TMP DP  RH WIND       PRES   REMARKS
GREELEY ARPT   MOCLDY    57  46  67 NE13      30.13R
AKRON          MOCLDY    63  54  72 SW7       30.06S
BURLINGTON     CLOUDY    64  53  67 E7        30.06R
WRAY           MOCLDY    67  55  66 SE9       29.98F
STERLING       MOCLDY    59  55  88 N8        30.06R
HOLYOKE        MOCLDY    61  57  88 NE8       30.05R
FORT MORGAN    MOCLDY    59  48  67 N10       30.10R
$$

COZ086-089-092>099-150600-
...SOUTHEAST COLORADO...

CITY           SKY/WX    TMP DP  RH WIND       PRES   REMARKS
PUEBLO         PTCLDY    67  31  26 N10       30.04R
LA JUNTA       CLEAR     70  53  54 SW9       30.02R
LAMAR          CLEAR     64  55  72 S8        29.98S
SPRINGFIELD      N/A     63  56  78 SW13      30.07S
$$


USA.gov is the U.S. government's official web portal to all federal, state and local government web resources and services.